This demonstration page uses our WeatherBlox Daily Observations layout. Learn more.

Hourly Observations for June 13, 2019

Temp ( °F °C ) Dew Point ( °F °C ) Humidity (%) Winds ( mph kmh ) Pressure ( in mb ) Visibility ( mi km ) Precip ( " mm )
12:15 am 00:15 Cloudy 63 17 63 17 100 100 Calm 30 1016 10 16.09344 0 0
12:35 am 00:35 Cloudy 61 16 61 16 100 100 Calm 29.97 1015 7 11.265408 0 0
12:55 am 00:55 Cloudy 61 16 61 16 100 100 Calm 29.94 1014 10 16.09344 0 0
1:15 am 01:15 Cloudy 61 16 61 16 100 100 Calm 29.94 1014 10 16.09344 0 0
1:35 am 01:35 Cloudy 61 16 61 16 100 100 Calm 29.94 1014 7 11.265408 0 0
1:55 am 01:55 Cloudy 61 16 61 16 100 100 NW 3 6 29.94 1014 7 11.265408 0 0
2:15 am 02:15 Cloudy 61 16 61 16 100 100 NNW 3 6 29.91 1013 7 11.265408 0 0
2:35 am 02:35 Cloudy 61 16 61 16 100 100 N 3 6 29.91 1013 5 8.04672 0 0
2:55 am 02:55 Cloudy 61 16 61 16 100 100 Calm 29.88 1012 5 8.04672 0 0
3:15 am 03:15 Cloudy 61 16 61 16 100 100 ENE 5 7 29.85 1011 5 8.04672 0 0
3:35 am 03:35 Cloudy 61 16 61 16 100 100 Calm 29.85 1011 5 8.04672 0 0
3:55 am 03:55 Cloudy 61 16 61 16 100 100 Calm 29.83 1010 4 6.437376 0 0
4:15 am 04:15 Cloudy 61 16 61 16 100 100 Calm 29.83 1010 3 4.828032 0 0
4:35 am 04:35 Cloudy 61 16 61 16 100 100 W 5 7 29.85 1011 5 8.04672 0 0
4:55 am 04:55 Cloudy 61 16 61 16 100 100 WNW 3 6 29.83 1010 5 8.04672 0 0
5:15 am 05:15 Cloudy 59 15 59 15 100 100 NW 3 6 29.83 1010 5 8.04672 0 0
5:35 am 05:35 Cloudy 59 15 59 15 100 100 NNW 5 7 29.83 1010 4 6.437376 0 0
5:55 am 05:55 Cloudy 59 15 59 15 100 100 Calm 29.83 1010 4 6.437376 0 0
6:15 am 06:15 Cloudy 59 15 59 15 100 100 NNE 3 6 29.83 1010 7 11.265408 0 0
6:35 am 06:35 Cloudy 59 15 59 15 100 100 N 3 6 29.8 1009 10 16.09344 0 0
6:55 am 06:55 Cloudy 59 15 59 15 100 100 Calm 29.83 1010 10 16.09344 0 0
7:15 am 07:15 Cloudy 61 16 61 16 100 100 Calm 29.83 1010 5 8.04672 0 0
7:35 am 07:35 Cloudy 61 16 61 16 100 100 NNW 3 6 29.8 1009 2 3.218688 0 0
7:55 am 07:55 Cloudy 61 16 61 16 100 100 Calm 29.8 1009 3 4.828032 0 0
8:15 am 08:15 Cloudy 61 16 61 16 100 100 Calm 29.8 1009 3 4.828032 0 0
8:35 am 08:35 Cloudy 61 16 61 16 100 100 Calm 29.8 1009 3 4.828032 0 0
8:55 am 08:55 Cloudy 61 16 61 16 100 100 Calm 29.8 1009 1.75 2.816352 0 0
9:15 am 09:15 Cloudy 61 16 61 16 100 100 Calm 29.83 1010 1.25 2.01168 0 0
9:35 am 09:35 Cloudy 61 16 61 16 100 100 ESE 6 9 29.8 1009 3 4.828032 0 0
9:55 am 09:55 Cloudy 61 16 61 16 100 100 SSE 5 7 29.83 1010 5 8.04672 0 0
10:15 am 10:15 Cloudy 61 16 61 16 100 100 SSW 3 6 29.83 1010 4 6.437376 0 0
10:35 am 10:35 Cloudy 61 16 61 16 100 100 Calm 29.83 1010 2 3.218688 0 0
10:55 am 10:55 Cloudy 61 16 61 16 100 100 SW 3 6 29.8 1009 2.5 4.02336 0 0
11:15 am 11:15 Cloudy 61 16 61 16 100 100 W 3 6 29.8 1009 1.75 2.816352 0 0
11:35 am 11:35 Cloudy 61 16 61 16 100 100 Calm 29.8 1009 2.5 4.02336 0 0
11:55 am 11:55 Cloudy 63 17 63 17 100 100 Calm 29.8 1009 7 11.265408 0 0
12:15 pm 12:15 Cloudy 63 17 63 17 100 100 ESE 3 6 29.8 1009 10 16.09344 0 0
12:35 pm 12:35 Cloudy 64 18 63 17 94 94 SSE 5 7 29.8 1009 10 16.09344 0 0
12:55 pm 12:55 Cloudy 64 18 64 18 100 100 Calm 29.8 1009 10 16.09344 0 0
1:15 pm 13:15 Cloudy 66 19 64 18 94 94 Calm 29.8 1009 10 16.09344 0 0
1:35 pm 13:35 Cloudy 68 20 64 18 88 88 SW 5 7 29.77 1008 10 16.09344 0 0
1:55 pm 13:55 Cloudy 70 21 64 18 83 83 SSW 5 7 29.77 1008 10 16.09344 0 0
2:15 pm 14:15 Cloudy 70 21 64 18 83 83 SSW 3 6 29.77 1008 10 16.09344 0 0
2:35 pm 14:35 Mostly Cloudy 72 22 64 18 78 78 SW 5 7 29.77 1008 10 16.09344 0 0
2:55 pm 14:55 Mostly Cloudy 72 22 63 17 73 73 S 5 7 29.74 1007 10 16.09344 0 0
3:15 pm 15:15 Mostly Cloudy 73 23 63 17 69 69 S 8 13 29.74 1007 10 16.09344 0 0
3:35 pm 15:35 Partly Cloudy 75 24 63 17 65 65 SSE 8 13 29.74 1007 10 16.09344 0 0
3:55 pm 15:55 Mostly Cloudy 73 23 63 17 69 69 S 8 13 29.71 1006 10 16.09344 0 0
4:15 pm 16:15 Cloudy 72 22 64 18 78 78 S 7 11 29.71 1006 7 11.265408 0 0
4:35 pm 16:35 Cloudy 72 22 66 19 83 83 SW 9 15 29.71 1006 10 16.09344 0 0
4:55 pm 16:55 Cloudy 70 21 66 19 88 88 SSW 8 13 29.74 1007 7 11.265408 0 0
5:15 pm 17:15 Mostly Cloudy with Thunderstorms 70 21 64 18 83 83 WNW 3 6 29.74 1007 10 16.09344 0 0
5:35 pm 17:35 Cloudy 63 17 61 16 94 94 WNW 9 15 29.77 1008 0.75 1.207008 0 0
5:55 pm 17:55 Mostly Cloudy 64 18 63 17 94 94 NW 3 6 29.77 1008 10 16.09344 0 0
6:15 pm 18:15 Partly Cloudy 66 19 63 17 88 88 Calm 29.74 1007 10 16.09344 0 0
6:35 pm 18:35 Sunny 68 20 63 17 83 83 Calm 29.77 1008 10 16.09344 0 0
6:55 pm 18:55 Sunny 70 21 63 17 78 78 Calm 29.77 1008 10 16.09344 0 0
7:15 pm 19:15 Sunny 70 21 64 18 83 83 Calm 29.77 1008 10 16.09344 0 0
7:35 pm 19:35 Mostly Cloudy 68 20 64 18 88 88 NW 5 7 29.8 1009 10 16.09344 0 0
7:55 pm 19:55 Partly Cloudy 68 20 57 14 69 69 NW 8 13 29.8 1009 10 16.09344 0 0
8:15 pm 20:15 Mostly Cloudy 68 20 54 12 60 60 WNW 14 22 29.83 1010 10 16.09344 0 0
8:35 pm 20:35 Mostly Cloudy 64 18 54 12 68 68 NW 12 19 29.83 1010 10 16.09344 0 0
8:55 pm 20:55 Cloudy 64 18 54 12 68 68 WNW 8 13 29.83 1010 10 16.09344 0 0
9:15 pm 21:15 Cloudy 64 18 54 12 68 68 WNW 10 17 29.83 1010 10 16.09344 0 0
9:35 pm 21:35 Cloudy 66 19 52 11 60 60 WNW 9 15 29.83 1010 10 16.09344 0 0
9:55 pm 21:55 Cloudy 64 18 52 11 64 64 W 14 22 29.85 1011 10 16.09344 0 0
10:15 pm 22:15 Partly Cloudy 64 18 48 9 56 56 W 7 11 29.85 1011 10 16.09344 0 0
10:35 pm 22:35 Clear 63 17 48 9 59 59 W 8 13 29.88 1012 10 16.09344 0 0
10:55 pm 22:55 Clear 63 17 50 10 64 64 W 6 9 29.88 1012 10 16.09344 0 0
11:15 pm 23:15 Clear 63 17 48 9 59 59 WSW 3 6 29.88 1012 10 16.09344 0 0
11:35 pm 23:35 Clear 63 17 50 10 64 64 Calm 29.88 1012 10 16.09344 0 0
11:55 pm 23:55 Clear 59 15 52 11 77 77 WSW 3 6 29.88 1012 10 16.09344 0 0

Powered by AerisWeather